[[{"header":{"parameterUnit":"m.s-1","parameterCategory":1,"la1":30.2991,"la2":30.254,"lo1":-89.0895,"lo2":-89.0444,"dy":0.0017,"dx":0.0017,"nx":28,"ny":28,"refTime":"2024-08-13T09:00:00:Z","depth":0,"parameterNumber":2,"parameterNumberName":"U-component_of_WINDS"},"data":[0,0,0,0,0,0,0,0,0,0,0,0,0,0,0,0,0,0,0,0,0,0,0,0,0,0,0,0,0,0,0,0,0,0,0,0,0,0,0,0,0,0,0,0,0,0,0,0,0,0,0,0,0,0,0,0,0,0,2.8614,2.8614,0,2.8639,2.864,2.864,2.8564,2.8562,2.856,2.8557,2.8587,2.859,2.8593,0,0,0,0,0,0,0,0,0,0,0,0,0,2.8504,2.8507,2.8614,2.8614,2.8614,2.8639,2.864,2.864,2.8565,2.8562,2.8559,2.8556,2.8586,2.859,2.8593,0,0,0,0,0,0,0,0,0,0,0,0,0,2.8543,2.8508,2.8614,2.858,2.8577,2.8639,2.864,2.864,2.8565,2.8562,2.8558,2.8555,2.8585,2.8589,2.8594,2.8691,0,0,2.8607,2.8609,0,0,0,0,0,0,0,0,2.8541,2.8547,2.8584,2.8582,2.8579,2.8595,2.8612,2.8657,2.8566,2.857,2.8557,2.8553,2.8593,2.8596,2.8609,2.8693,2.8694,2.8608,2.8611,2.8612,2.8614,0,0,0,0,0,0,0,2.8539,2.8546,2.8624,2.8585,2.8582,2.8565,2.8566,2.862,2.8601,2.8569,2.8564,2.8568,2.8591,2.8605,2.8609,2.8694,2.8608,2.8612,2.8614,2.8616,2.8863,2.8866,0,0,0,0,0,0,2.854,2.8544,2.8623,2.8625,2.8551,2.857,2.8571,2.8593,2.86,2.8597,2.8571,2.8564,2.8599,2.8604,2.861,2.8727,2.8612,2.8617,2.8619,2.8859,2.8864,2.8868,0,0,0,0,0,0,2.8538,2.8548,2.8622,2.8583,2.8591,2.8575,2.8601,2.8596,2.861,2.8601,2.8597,2.8588,2.8596,2.8604,2.8672,2.8727,2.8619,2.8623,2.8854,2.886,2.8866,2.896,0,0,0,0,0,0,2.8535,2.8547,2.8583,2.8584,2.8594,2.8683,2.8604,2.8599,2.8617,2.8609,2.8617,2.8615,2.8594,2.8666,2.8677,2.8731,2.8626,2.8849,2.8857,2.8864,2.8952,2.8968,2.8982,0,0,0,0,0,2.8531,2.8608,2.8585,2.8595,2.8637,2.8686,2.8691,2.8665,2.8622,2.8659,2.8653,2.8614,2.8719,2.8674,2.8685,2.8741,2.8846,2.8855,2.8863,2.8945,2.8965,2.8981,0,0,0,0,0,0,2.8614,2.8608,2.8582,2.8661,2.8675,2.8673,2.8718,2.8687,2.8713,2.8704,2.8672,2.8675,2.875,2.8752,2.8702,2.8838,2.8775,2.8787,2.8833,2.8852,2.8867,2.8865,2.863,0,0,0,0,0,2.8641,2.868,2.8673,2.8744,2.8752,2.8734,2.8754,2.8733,2.8746,2.8751,2.8751,2.8766,2.8803,2.8827,2.886,2.8951,2.8954,2.8996,2.9011,2.9024,2.9034,2.9086,2.9105,2.8897,2.8896,2.8896,0,0,2.8699,2.87,2.8726,2.876,2.8768,2.8811,2.8739,2.8786,2.8818,2.8759,2.8824,2.8824,2.8839,2.8921,2.8956,2.8925,2.9093,2.9035,2.9045,2.9049,2.9097,2.9117,2.9134,2.8902,2.8901,2.89,0,0,2.8825,2.8829,2.8889,2.8899,2.8912,2.89,2.8915,2.8918,2.8916,2.898,2.8938,2.8976,2.9038,2.9052,2.9067,2.9201,2.9167,2.9213,2.9292,2.9343,2.9359,2.9374,2.9424,2.9442,2.9223,2.9223,2.9224,0,2.8894,2.8955,2.8925,2.8976,2.8993,2.8941,2.9004,2.9015,2.9038,2.9053,2.9017,2.9096,2.9102,2.9187,2.922,2.9233,2.9251,2.9212,2.9359,2.9373,2.9386,2.9434,2.9453,2.9229,2.9228,2.9228,2.9227,0,2.9042,2.9085,2.9132,2.9156,2.9179,2.9236,2.9216,2.9243,2.9221,2.9213,2.9281,2.9287,2.9322,2.934,2.9319,2.9423,2.9403,2.9364,2.9301,2.9412,2.9457,2.9474,2.9237,2.9235,2.9233,2.9232,0,0,2.922,2.9227,2.9245,2.9257,2.9268,2.9302,2.9357,2.939,2.9415,2.9434,2.9481,2.9536,2.9501,2.9518,2.9498,2.9542,2.9651,2.9497,2.9497,2.9527,2.9769,2.98,2.9821,2.9628,2.9632,2.9634,2.9769,0,2.9345,2.9439,2.9415,2.9509,2.955,2.9502,2.9551,2.9565,2.956,2.9596,2.9591,2.9631,2.958,2.959,2.9632,2.9629,2.9699,2.9619,2.9674,2.9677,2.9673,2.9844,2.9876,3.0003,2.9786,2.9788,2.9791,0,2.9504,2.9529,2.9628,2.9634,2.9651,2.9695,2.9725,2.9758,2.9774,2.9767,2.9788,2.976,2.9817,2.9753,2.9833,2.9779,2.98,2.9803,2.9807,2.9812,2.9741,2.9856,3.0042,3.0062,2.9817,2.9815,2.9813,0,2.9627,2.9685,2.9752,2.9763,2.9772,2.9805,2.981,2.9822,2.9844,2.9871,2.9886,2.9919,2.9937,2.9965,2.9947,2.9902,3.0032,2.9965,3.003,3.0031,3.006,3.0059,3.0254,3.0072,3.0071,3.0071,3.0071,0,2.9771,2.9834,2.9808,2.9849,2.9919,2.9891,2.9961,2.9962,2.9973,3.0015,2.9976,3.0017,2.9991,3.003,3.0017,3.0087,3.0095,3.0094,3.009,3.0098,3.0099,3.0112,3.0104,3.0076,3.0075,3.0074,3.0073,0,2.992,2.9905,2.9975,2.9978,2.9981,3.0032,3.0036,3.0076,3.0069,3.0123,3.0134,3.0124,3.0168,3.0154,3.0201,3.0193,3.0282,3.0266,3.0277,3.0274,3.034,3.0335,3.0552,3.0581,3.0378,3.038,3.0382,0,3.0013,3.0061,3.0069,3.0095,3.0103,3.0144,3.0167,3.0142,3.0168,3.019,3.0228,3.0269,3.0301,3.0375,3.0373,3.041,3.0396,3.0469,3.0401,3.0409,3.0399,3.0397,3.0403,3.0484,3.0486,3.0488,3.0489,0,3.0182,3.0172,3.0206,3.0238,3.0266,3.0291,3.0311,3.0335,3.0312,3.0343,3.0388,3.0412,3.0462,3.0504,3.0539,3.0546,3.0516,3.0511,3.0528,3.0538,3.0543,3.0543,3.0316,3.0506,3.0504,3.0503,3.0502,3.0502,3.0307,3.0348,3.0361,3.0401,3.0414,3.0435,3.0473,3.0471,3.0508,3.0545,3.0529,3.0582,3.0599,3.0641,3.0654,3.0696,3.0668,3.0692,3.0699,3.0706,3.0715,3.0535,3.0702,3.0701,3.0701,3.0701,3.07,0,3.0475,3.0482,3.0518,3.0549,3.0581,3.0548,3.057,3.06,3.0646,3.0664,3.0696,3.0749,3.0791,3.0792,3.0832,3.0865,3.0853,3.0877,3.0875,3.0878,3.0737,3.0719,3.0887,3.0887,3.0887,3.0887,3.0887,3.0887,3.0567,3.0635,3.0627,3.0703,3.0709,3.0759,3.0775,3.0795,3.081,3.0871,3.0905,3.0905,3.0917,3.0958,3.0995,3.0995,3.1012,3.1042,3.1037,3.0906,3.0887,3.087,3.0853,3.1046,3.1046,3.1174,3.1175,3.1176]},{"header":{"parameterUnit":"m.s-1","parameterCategory":1,"la1":30.2991,"la2":30.254,"lo1":-89.0895,"lo2":-89.0444,"dy":0.0017,"dx":0.0017,"nx":28,"ny":28,"refTime":"2024-08-13T09:00:00:Z","depth":0,"parameterNumber":3,"parameterNumberName":"V-component_of_WINDS"},"data":[0,0,0,0,0,0,0,0,0,0,0,0,0,0,0,0,0,0,0,0,0,0,0,0,0,0,0,0,0,0,0,0,0,0,0,0,0,0,0,0,0,0,0,0,0,0,0,0,0,0,0,0,0,0,0,0,0,0,-0.9534,-0.9535,0,-0.9548,-0.9549,-0.9549,-0.9557,-0.9557,-0.9557,-0.9557,-0.9571,-0.9571,-0.9572,0,0,0,0,0,0,0,0,0,0,0,0,0,-0.9516,-0.9517,-0.9534,-0.9535,-0.9535,-0.9548,-0.9549,-0.9549,-0.9557,-0.9557,-0.9557,-0.9557,-0.9571,-0.9571,-0.9572,0,0,0,0,0,0,0,0,0,0,0,0,0,-0.9527,-0.9517,-0.9534,-0.9541,-0.9541,-0.9548,-0.9549,-0.9549,-0.9557,-0.9557,-0.9557,-0.9557,-0.9571,-0.9571,-0.9572,-0.9574,0,0,-0.9573,-0.9574,0,0,0,0,0,0,0,0,-0.9526,-0.9527,-0.9539,-0.954,-0.9541,-0.9551,-0.9547,-0.9557,-0.9557,-0.9551,-0.9557,-0.9557,-0.9564,-0.9565,-0.9568,-0.9575,-0.9575,-0.9573,-0.9574,-0.9574,-0.9574,0,0,0,0,0,0,0,-0.9525,-0.9527,-0.954,-0.954,-0.9541,-0.9543,-0.9545,-0.9549,-0.9557,-0.9551,-0.9552,-0.9554,-0.9565,-0.9567,-0.9568,-0.9575,-0.9573,-0.9574,-0.9574,-0.9574,-0.9587,-0.9587,0,0,0,0,0,0,-0.9524,-0.9526,-0.954,-0.954,-0.9533,-0.9543,-0.9545,-0.9548,-0.9557,-0.9559,-0.9554,-0.9554,-0.9566,-0.9568,-0.9569,-0.9573,-0.9574,-0.9574,-0.9575,-0.9587,-0.9587,-0.9587,0,0,0,0,0,0,-0.9523,-0.9525,-0.9539,-0.9533,-0.9535,-0.9544,-0.9546,-0.9548,-0.9551,-0.9559,-0.956,-0.9555,-0.9567,-0.9568,-0.9573,-0.9574,-0.9575,-0.9575,-0.9587,-0.9587,-0.9587,-0.9581,0,0,0,0,0,0,-0.9523,-0.9524,-0.9525,-0.9533,-0.9536,-0.9543,-0.9546,-0.9548,-0.9551,-0.9552,-0.956,-0.9562,-0.9567,-0.9572,-0.9574,-0.9575,-0.9576,-0.9587,-0.9587,-0.9587,-0.9582,-0.9581,-0.9581,0,0,0,0,0,-0.9522,-0.9522,-0.9525,-0.9526,-0.9536,-0.9543,-0.9544,-0.955,-0.9551,-0.9552,-0.9558,-0.9561,-0.9574,-0.9573,-0.9574,-0.9575,-0.9587,-0.9587,-0.9587,-0.9582,-0.9581,-0.9581,0,0,0,0,0,0,-0.9513,-0.9523,-0.9526,-0.9529,-0.9535,-0.9544,-0.9545,-0.9549,-0.9554,-0.9555,-0.9562,-0.9564,-0.9568,-0.9572,-0.9571,-0.9579,-0.9581,-0.9581,-0.9576,-0.9576,-0.9576,-0.9575,-0.9576,0,0,0,0,0,-0.9511,-0.9515,-0.9524,-0.9526,-0.9529,-0.9537,-0.9539,-0.9544,-0.955,-0.9552,-0.9558,-0.9564,-0.957,-0.9573,-0.9578,-0.9582,-0.9585,-0.9584,-0.9584,-0.9584,-0.9584,-0.9588,-0.9588,-0.9587,-0.9587,-0.9587,0,0,-0.9508,-0.9514,-0.9516,-0.9525,-0.953,-0.9534,-0.9538,-0.9543,-0.9546,-0.9553,-0.9558,-0.9563,-0.9571,-0.9576,-0.9578,-0.9579,-0.9585,-0.9584,-0.9583,-0.9584,-0.9588,-0.9588,-0.9589,-0.9587,-0.9587,-0.9587,0,0,-0.9505,-0.9509,-0.9512,-0.9517,-0.9525,-0.9531,-0.9531,-0.954,-0.9544,-0.9549,-0.9555,-0.956,-0.9568,-0.9574,-0.9578,-0.9579,-0.9583,-0.9581,-0.9579,-0.9583,-0.9583,-0.9584,-0.9585,-0.9586,-0.9581,-0.9581,-0.9581,0,-0.9499,-0.9506,-0.9513,-0.9518,-0.9522,-0.9529,-0.9532,-0.9537,-0.9546,-0.9549,-0.955,-0.9563,-0.9568,-0.9575,-0.9576,-0.9579,-0.9581,-0.958,-0.9583,-0.9583,-0.9583,-0.9585,-0.9585,-0.9581,-0.9581,-0.9581,-0.9581,0,-0.95,-0.9505,-0.9507,-0.9516,-0.952,-0.9524,-0.9533,-0.9536,-0.9541,-0.9546,-0.9553,-0.956,-0.9568,-0.957,-0.9574,-0.9578,-0.9579,-0.9581,-0.9583,-0.9583,-0.9585,-0.9585,-0.958,-0.958,-0.958,-0.958,0,0,-0.949,-0.9505,-0.9505,-0.9511,-0.9521,-0.9525,-0.953,-0.9538,-0.9542,-0.9548,-0.9553,-0.9561,-0.9564,-0.9569,-0.9574,-0.9577,-0.958,-0.958,-0.958,-0.958,-0.9587,-0.9586,-0.9586,-0.9582,-0.9583,-0.9583,-0.9587,0,-0.9489,-0.9498,-0.9505,-0.9512,-0.9518,-0.9525,-0.953,-0.9537,-0.9543,-0.9549,-0.9556,-0.9562,-0.9564,-0.9568,-0.9572,-0.9579,-0.9581,-0.9578,-0.9588,-0.9588,-0.9587,-0.9587,-0.9585,-0.9589,-0.9588,-0.9588,-0.9588,0,-0.9488,-0.9495,-0.9503,-0.9514,-0.9517,-0.9521,-0.953,-0.9535,-0.9544,-0.9548,-0.9554,-0.956,-0.9567,-0.9568,-0.9578,-0.9576,-0.9581,-0.9585,-0.9586,-0.9587,-0.9588,-0.9589,-0.959,-0.9591,-0.9589,-0.9589,-0.9589,0,-0.9481,-0.9493,-0.9499,-0.9503,-0.9516,-0.9519,-0.9525,-0.9534,-0.9539,-0.9547,-0.9551,-0.9559,-0.9564,-0.9571,-0.9579,-0.9579,-0.9589,-0.9591,-0.9594,-0.9594,-0.9596,-0.9595,-0.9598,-0.9598,-0.9598,-0.9598,-0.9598,0,-0.9479,-0.9484,-0.9497,-0.9501,-0.9507,-0.9516,-0.9522,-0.9528,-0.9536,-0.9542,-0.9549,-0.9555,-0.9565,-0.9573,-0.9579,-0.9588,-0.9589,-0.9594,-0.9595,-0.9593,-0.9593,-0.9597,-0.9597,-0.9598,-0.9598,-0.9598,-0.9598,0,-0.9473,-0.9481,-0.9489,-0.9502,-0.9505,-0.9509,-0.952,-0.9525,-0.9532,-0.9539,-0.9542,-0.9553,-0.9562,-0.9571,-0.9583,-0.9587,-0.9596,-0.9598,-0.9593,-0.9594,-0.9597,-0.9597,-0.9602,-0.9604,-0.9602,-0.9602,-0.9602,0,-0.9471,-0.9475,-0.9488,-0.9493,-0.9499,-0.9506,-0.9512,-0.9521,-0.9527,-0.9538,-0.9542,-0.9552,-0.956,-0.9575,-0.9584,-0.9594,-0.9597,-0.9598,-0.9598,-0.9597,-0.9598,-0.9598,-0.9599,-0.9598,-0.9598,-0.9598,-0.9598,0,-0.9467,-0.9472,-0.948,-0.949,-0.9496,-0.9504,-0.9513,-0.9516,-0.9528,-0.9534,-0.9544,-0.955,-0.9564,-0.9574,-0.9585,-0.9592,-0.9597,-0.9598,-0.9599,-0.9597,-0.9595,-0.9597,-0.9593,-0.9597,-0.9597,-0.9597,-0.9597,-0.9597,-0.9464,-0.9468,-0.9479,-0.9488,-0.9495,-0.9504,-0.9509,-0.9518,-0.9526,-0.9537,-0.9543,-0.9553,-0.9564,-0.958,-0.9587,-0.9595,-0.9597,-0.9598,-0.9599,-0.9599,-0.9599,-0.9593,-0.9597,-0.9597,-0.9597,-0.9597,-0.9597,0,-0.9461,-0.9469,-0.9477,-0.9489,-0.9497,-0.9502,-0.9512,-0.9518,-0.9527,-0.9537,-0.9545,-0.9557,-0.9568,-0.9579,-0.959,-0.9595,-0.9598,-0.9598,-0.9598,-0.96,-0.9597,-0.9595,-0.9596,-0.9596,-0.9596,-0.9596,-0.9596,-0.9596,-0.9461,-0.9469,-0.9476,-0.9489,-0.9497,-0.9507,-0.9512,-0.9521,-0.9529,-0.9542,-0.9551,-0.9558,-0.9569,-0.9582,-0.9592,-0.9595,-0.9599,-0.9599,-0.9603,-0.96,-0.96,-0.96,-0.9598,-0.9599,-0.9599,-0.9605,-0.9605,-0.9605]}]]